This demonstration page uses our WeatherBlox Daily Observations layout. Learn more.

Left ArrowRight Arrow

Hourly Observations for April 22, 2019

Temp ( °F °C ) Dew Point ( °F °C ) Humidity (%) Winds ( mph kmh ) Pressure ( in mb ) Visibility ( mi km ) Precip ( " mm )
12:15 am 00:15 Mostly Cloudy 57 14 45 7 63 63 N 6 9 30.13 1020 10 16 0.00 0.00
12:35 am 00:35 Cloudy 57 14 45 7 63 63 N 8 13 30.14 1021 10 16 0.00 0.00
12:55 am 00:55 Cloudy 55 13 45 7 67 67 N 10 17 30.14 1021 10 16 0.00 0.00
1:15 am 01:15 Cloudy 55 13 45 7 67 67 N 10 17 30.14 1021 10 16 0.00 0.00
1:35 am 01:35 Cloudy 55 13 45 7 67 67 N 8 13 30.14 1021 10 16 0.00 0.00
1:55 am 01:55 Cloudy 55 13 45 7 67 67 NNW 8 13 30.13 1020 10 16 0.00 0.00
2:15 am 02:15 Cloudy 55 13 45 7 67 67 NNW 8 13 30.13 1020 10 16 0.00 0.00
2:35 am 02:35 Cloudy 55 13 45 7 67 67 N 8 13 30.12 1020 10 16 0.00 0.00
2:55 am 02:55 Mostly Cloudy 54 12 45 7 72 72 NNW 12 19 30.11 1020 10 16 0.00 0.00
3:15 am 03:15 Partly Cloudy 54 12 45 7 72 72 NNW 12 19 30.11 1020 10 16 0.00 0.00
3:35 am 03:35 Clear 54 12 45 7 72 72 NNW 13 20 30.12 1020 10 16 0.00 0.00
3:55 am 03:55 Clear 54 12 45 7 72 72 NNW 9 15 30.12 1020 10 16 0.00 0.00
4:15 am 04:15 Clear 54 12 45 7 72 72 NNW 9 15 30.12 1020 10 16 0.00 0.00
4:35 am 04:35 Clear 54 12 45 7 72 72 NNW 12 19 30.12 1020 10 16 0.00 0.00
4:55 am 04:55 Clear 52 11 45 7 77 77 NNW 9 15 30.12 1020 10 16 0.00 0.00
5:15 am 05:15 Clear 52 11 45 7 77 77 NW 9 15 30.12 1020 10 16 0.00 0.00
5:35 am 05:35 Partly Cloudy 52 11 45 7 77 77 NW 9 15 30.13 1020 10 16 0.00 0.00
5:55 am 05:55 Mostly Cloudy 52 11 45 7 77 77 NW 10 17 30.14 1021 10 16 0.00 0.00
6:15 am 06:15 Mostly Cloudy 52 11 45 7 77 77 NW 12 19 30.15 1021 10 16 0.00 0.00
6:35 am 06:35 Partly Cloudy 52 11 45 7 77 77 NW 8 13 30.15 1021 10 16 0.00 0.00
6:55 am 06:55 Partly Cloudy 52 11 45 7 77 77 NW 12 19 30.15 1021 10 16 0.00 0.00
7:15 am 07:15 Partly Cloudy 52 11 45 7 77 77 NW 12 19 30.16 1021 10 16 0.00 0.00
7:35 am 07:35 Sunny 52 11 46 8 82 82 NW 12 19 30.16 1021 10 16 0.00 0.00
7:55 am 07:55 Partly Cloudy 54 12 46 8 77 77 NNW 13 20 30.18 1022 10 16 0.00 0.00
8:15 am 08:15 Mostly Cloudy 54 12 46 8 77 77 NW 12 19 30.18 1022 10 16 0.00 0.00
8:35 am 08:35 Mostly Cloudy 54 12 46 8 77 77 NNW 14 22 30.18 1022 10 16 0.00 0.00
8:55 am 08:55 Mostly Cloudy 55 13 48 9 77 77 NNW 13 20 30.18 1022 10 16 0.00 0.00
9:15 am 09:15 Cloudy 57 14 48 9 72 72 NNW 14 22 30.18 1022 10 16 0.00 0.00
9:35 am 09:35 Cloudy 57 14 46 8 67 67 N 17 28 30.18 1022 10 16 0.00 0.00
9:55 am 09:55 Cloudy 57 14 46 8 67 67 N 14 22 30.19 1022 10 16 0.00 0.00
10:15 am 10:15 Cloudy 59 15 48 9 68 68 NNW 16 26 30.19 1022 10 16 0.00 0.00
10:35 am 10:35 Cloudy 59 15 48 9 68 68 NNW 16 26 30.19 1022 10 16 0.00 0.00
10:55 am 10:55 Mostly Cloudy 61 16 50 10 68 68 NNW 14 22 30.19 1022 10 16 0.00 0.00
11:15 am 11:15 Partly Cloudy 63 17 50 10 64 64 N 13 20 30.19 1022 10 16 0.00 0.00
11:35 am 11:35 Sunny 63 17 50 10 64 64 N 14 22 30.18 1022 10 16 0.00 0.00
11:55 am 11:55 Partly Cloudy 63 17 50 10 64 64 N 13 20 30.18 1022 10 16 0.00 0.00
12:15 pm 12:15 Cloudy 63 17 50 10 64 64 N 13 20 30.18 1022 10 16 0.00 0.00
12:35 pm 12:35 Cloudy 64 18 50 10 60 60 N 13 20 30.16 1021 10 16 0.00 0.00
12:55 pm 12:55 Partly Cloudy 66 19 52 11 60 60 N 12 19 30.15 1021 10 16 0.00 0.00
1:15 pm 13:15 Sunny 66 19 52 11 60 60 NNW 10 17 30.14 1021 10 16 0.00 0.00
1:35 pm 13:35 Sunny 68 20 50 10 53 53 N 10 17 30.13 1020 10 16 0.00 0.00
1:55 pm 13:55 Sunny 68 20 52 11 56 56 N 12 19 30.12 1020 10 16 0.00 0.00
2:15 pm 14:15 Sunny 68 20 50 10 53 53 NNW 12 19 30.12 1020 10 16 0.00 0.00
2:35 pm 14:35 Sunny 70 21 52 11 53 53 NNW 12 19 30.11 1020 10 16 0.00 0.00
2:55 pm 14:55 Partly Cloudy 70 21 52 11 53 53 NNW 14 22 30.10 1019 10 16 0.00 0.00
3:15 pm 15:15 Partly Cloudy 70 21 50 10 50 50 NNW 14 22 30.09 1019 10 16 0.00 0.00
3:35 pm 15:35 Sunny 70 21 50 10 50 50 NNW 13 20 30.09 1019 10 16 0.00 0.00
3:55 pm 15:55 Partly Cloudy 70 21 50 10 50 50 N 12 19 30.08 1019 10 16 0.00 0.00
4:15 pm 16:15 Sunny 70 21 50 10 50 50 NNW 13 20 30.07 1018 10 16 0.00 0.00
4:35 pm 16:35 Sunny 72 22 50 10 47 47 NW 10 17 30.07 1018 10 16 0.00 0.00
4:55 pm 16:55 Partly Cloudy 72 22 50 10 47 47 NNW 12 19 30.07 1018 10 16 0.00 0.00
5:15 pm 17:15 Partly Cloudy 72 22 50 10 47 47 NW 13 20 30.07 1018 10 16 0.00 0.00
5:35 pm 17:35 Partly Cloudy 72 22 50 10 47 47 NNW 12 19 30.07 1018 10 16 0.00 0.00
5:55 pm 17:55 Partly Cloudy 72 22 50 10 47 47 NNW 9 15 30.07 1018 10 16 0.00 0.00
6:15 pm 18:15 Partly Cloudy 72 22 50 10 47 47 NNW 12 19 30.07 1018 10 16 0.00 0.00
6:35 pm 18:35 Sunny 72 22 48 9 44 44 N 9 15 30.07 1018 10 16 0.00 0.00
6:55 pm 18:55 Sunny 70 21 50 10 50 50 NNW 9 15 30.07 1018 10 16 0.00 0.00
7:15 pm 19:15 Sunny 70 21 50 10 50 50 N 8 13 30.07 1018 10 16 0.00 0.00
7:35 pm 19:35 Sunny 70 21 50 10 50 50 NNW 6 9 30.07 1018 10 16 0.00 0.00
7:55 pm 19:55 Clear 68 20 50 10 53 53 NW 3 6 30.07 1018 10 16 0.00 0.00
8:15 pm 20:15 Clear 64 18 52 11 64 64 WNW 3 6 30.08 1019 10 16 0.00 0.00
8:35 pm 20:35 Clear 64 18 50 10 60 60 Calm 30.08 1019 10 16 0.00 0.00
8:55 pm 20:55 Clear 63 17 50 10 64 64 NW 3 6 30.09 1019 10 16 0.00 0.00
9:15 pm 21:15 Clear 63 17 50 10 64 64 Calm 30.10 1019 10 16 0.00 0.00
9:35 pm 21:35 Clear 61 16 50 10 68 68 Calm 30.10 1019 10 16 0.00 0.00
9:55 pm 21:55 Clear 61 16 50 10 68 68 NW 3 6 30.10 1019 10 16 0.00 0.00
10:15 pm 22:15 Clear 59 15 50 10 72 72 NW 5 7 30.10 1019 10 16 0.00 0.00
10:35 pm 22:35 Clear 59 15 50 10 72 72 WNW 3 6 30.11 1020 10 16 0.00 0.00
10:55 pm 22:55 Clear 59 15 50 10 72 72 Calm 30.10 1019 10 16 0.00 0.00
11:15 pm 23:15 Clear 55 13 50 10 82 82 WSW 3 6 30.11 1020 10 16 0.00 0.00
11:35 pm 23:35 Clear 55 13 50 10 82 82 W 3 6 30.11 1020 10 16 0.00 0.00
11:55 pm 23:55 Clear 55 13 50 10 82 82 W 3 6 30.10 1019 10 16 0.00 0.00

Powered by AerisWeather